Location: Doverdale
(52.2833°N, 2.2000°W)
Time: 10:36:00
(UTC+00:00)

Resurs 01 Rocket - Pass Details

Date: 29 October 2020
Orbit: 634 x 644 km, 98.0° (Epoch: 25 November)

Event Time Altitude Azimuth Distance (km) Brightness Sun altitude
Exits shadow 19:11:38 11° 16° (NNE) 2,001 4.1 -22.9°
Drops below altitude 10° 19:11:46 10° 15° (NNE) 2,038 4.1 -23.0°
Sets 19:14:31 0° 357° (N) 2,948 5.2 -23.4°
